• Processing (Info)

  • MPEC 2022-N40 : 2022 NO

    The following Minor Planet Electronic Circular may be linked-to from your own Web pages, but must not otherwise be redistributed electronically.

    A form allowing access to any MPEC is at the bottom of this page.


    Read MPEC 2022-N39 Read MPEC 2022-N41


    M.P.E.C. 2022-N40                                  Issued 2022 July 7, 11:09 UT
    
         The Minor Planet Electronic Circulars contain information on unusual
             minor planets and routine data on comets.  They are published
        on behalf of Division F of the International Astronomical Union by the
              Minor Planet Center, Smithsonian Astrophysical Observatory,
                              Cambridge, MA 02138, U.S.A.
    
                 Prepared using the Tamkin Foundation Computer Network
    
                                  MPC@CFA.HARVARD.EDU
                URL https://www.minorplanetcenter.net/    ISSN 1523-6714
    
                                     2022 NO                                 
    
    
    Observations:
         K22N00O* C2022 07 05.37405717 34 58.141-03 52 00.16         19.5 GVEN040U68
         K22N00O  C2022 07 05.37739917 35 02.612-03 53 43.69         19.5 GVEN040U68
         K22N00O  C2022 07 05.39870117 35 31.290-04 04 43.04         19.5 GVEN040U68
         K22N00O  C2022 07 05.40204417 35 35.834-04 06 26.27         19.5 GVEN040U68
         K22N00O KC2022 07 05.87818917 47 17.40 -08 15 42.3          18.7 GXEN040958
         K22N00O KC2022 07 05.88261817 47 23.63 -08 18 01.8          18.8 GXEN040958
         K22N00O KC2022 07 05.88698117 47 29.75 -08 20 19.3          19.0 GXEN040958
         K22N00O KC2022 07 05.89861217 47 45.76 -08 26 31.2          19.2 GXEN040I93
         K22N00O KC2022 07 05.90347517 47 52.58 -08 29 05.1          18.8 GXEN040I93
         K22N00O KC2022 07 05.90985717 48 01.48 -08 32 27.3          19.0 GXEN040I93
         K22N00O KC2022 07 05.93224217 48 32.90 -08 44 13.0          18.7 GXEN040958
         K22N00O KC2022 07 05.93749817 48 40.23 -08 46 58.1          18.0 GXEN040958
         K22N00O KC2022 07 05.94278017 48 47.51 -08 49 44.3          18.2 GXEN040958
         K22N00O KC2022 07 05.94759917 48 54.283-08 52 36.84         19.0 GVEN040J95
         K22N00O KC2022 07 05.95716717 49 07.745-08 57 38.84               VEN040J95
         K22N00O KC2022 07 05.96650617 49 20.892-09 02 34.33         19.3 GVEN040J95
         K22N00O KC2022 07 06.05634717 51 36.858-09 45 16.64         18.5 GXEN040Y00
         K22N00O KC2022 07 06.06164617 51 44.214-09 48 04.76         17.7 GXEN040Y00
         K22N00O KC2022 07 06.06692217 51 51.474-09 50 51.21         17.8 GXEN040Y00
         K22N00O KC2022 07 06.16636117 54 21.23 -10 47 18.1          18.9 VuEN040H21
         K22N00O KC2022 07 06.16742417 54 22.74 -10 47 52.0          18.6 VuEN040H21
         K22N00O KC2022 07 06.16848717 54 24.26 -10 48 25.6          18.7 VuEN040H21
         K22N00O KC2022 07 06.16955017 54 25.75 -10 48 59.1          18.9 VuEN040H21
         K22N00O KC2022 07 06.27964 17 57 03.53 -11 46 49.4          18.4 rqEN040H36
         K22N00O KC2022 07 06.28407 17 57 09.88 -11 49 10.5                qEN040H36
         K22N00O KC2022 07 06.28852 17 57 16.24 -11 51 29.3          18.8 rqEN040H36
         K22N00O KC2022 07 06.75132318 09 22.76 -15 48 22.1          18.5 GVEN040M21
         K22N00O KC2022 07 06.76281318 09 39.88 -15 54 21.2                VEN040M21
         K22N00O IC2022 07 06.94018418 14 00.83 -17 30 06.5          19.1 GVEN040L01
         K22N00O IC2022 07 06.94161518 14 02.87 -17 30 49.7          18.6 GVEN040L01
         K22N00O KC2022 07 06.94313818 14 05.12 -17 31 36.8          18.5 GVEN040L01
         K22N00O IC2022 07 06.94467418 14 07.44 -17 32 22.8          18.9 GVEN040L01
         K22N00O KC2022 07 06.94613018 14 09.58 -17 33 07.7          19.8 GVEN040L01
    
    Observer details:
    958 Observatoire de Dax.  Observers P. Dupouy, J. B. de Vanssay.  Measurer P.
        Dupouy.  0.43-m f/2.7 Reflector + CCD.
    H21 Astronomical Research Observatory, Westfield.  Observer R. Holmes.
        Measurers T. Linder, R. Holmes, L. Horn.  0.76-m f/3.0 astrograph + CCD.
    H36 Sandlot Observatory, Scranton.  Observer G. Hug.  .56 meter reflector +
        CCD.
    I93 St Pardon de Conques.  Observer F. Losse.  0.40-m f/3.7 reflector + CCD.
    J95 Great Shefford.  Observer P. Birtwhistle.  0.41-m f/6.3 Schmidt-Cassegrain
        + CCD.
    L01 Visnjan Observatory, Tican.  Observer K. Korlevic.  1.0-m f/2.9 reflector
        + CCD.
    M21 Schiaparelli Southern Observatory, Hakos.  Observers A. Aletti, F.
        Bellini, L. Buzzi, G. Galli.  Measurer L. Buzzi.  0.36-m f/8.4 reflector +
        CCD.
    U68 JPL SynTrack Robotic Telescope, Auberry.  Observers N. Saini, C. Zhai, R.
        Trahan, M. Zhan, M. Shao.  0.28-m Reflector + CCD.
    Y00 SONEAR Observatory, Oliveira.  Observer C. Jacques.  0.45-m f/2.9 0.45-m
        f/2.9 reflector + CCD.
    
    Orbital elements:
    2022 NO                                                  Earth MOID = 0.0325 AU
    Epoch 2022 Aug. 9.0 TT = JDT 2459800.5                  Veres                   
    M  12.88173              (2000.0)            P               Q                  
    n   0.28150402     Peri.  164.57237     -0.00060452     +0.97225216             
    a   2.3057541      Node   104.95479     -0.94119867     +0.07848235             
    e   0.5498380      Incl.   14.01263     -0.33785306     -0.22037753             
    P   3.50           H   25.32          G   0.15           U   8                  
    Residuals in seconds of arc
    220705 U68  0.1+  0.3-    220705 958  0.6+  0.1+    220706 H21  0.1-  0.0
    220705 U68  0.1-  0.3-    220705 958  0.7-  0.8+    220706 H36  0.2-  1.5+
    220705 U68  0.3-  0.2+    220705 J95  0.5+  0.1+    220706 H36  0.3+  0.3-
    220705 U68  0.1+  0.5+    220705 J95  0.6+  0.4+    220706 H36  0.5+  0.8+
    220705 958  0.8-  0.1+    220705 J95  0.7+  0.1-    220706 M21  1.1+  0.1-
    220705 958  0.2-  0.7+    220706 Y00  0.0   0.1+    220706 M21  0.4+  0.5+
    220705 958  0.2+  1.3+    220706 Y00  0.4+  0.3-    220706 L01  0.9+  0.3-
    220705 I93  0.4+  0.1-    220706 Y00  0.2-  0.2+    220706 L01  0.2-  0.2+
    220705 I93  0.9+  0.2-    220706 H21  0.5-  0.1+    220706 L01  0.3-  0.4-
    220705 I93  0.8+  0.6-    220706 H21  0.4-  0.1-    220706 L01  0.3+  0.5+
    220705 958  0.5+  1.0-    220706 H21  0.1+  0.1-    220706 L01  0.1+  0.1+
    
    Ephemeris:
    2022 NO                  a,e,i = 2.31, 0.55, 14                  q = 1.0380
    Date    TT    R. A. (2000) Decl.     Delta      r    Elong.  Phase     V
    2022 06 07    14 07 48.7 +47 55 23   0.1797  1.0598    99.6    70.7    24.2
    ...
    2022 06 22    14 50 44.8 +42 32 27   0.09496 1.0382   100.8    74.1    22.9
    ...
    2022 06 30    15 58 01.3 +28 34 21   0.05181 1.0404   116.0    61.5    21.2
    ...
    2022 07 06    17 50 09.7 -09 16 01   0.03383 1.0483   158.7    20.7    19.1
    2022 07 07    18 15 33.7 -17 56 17   0.03416 1.0501   167.9    11.8    18.8
    2022 07 08    18 42 04.8 -25 57 37   0.03564 1.0521   173.3     6.5    18.7
    ...
    2022 07 14    21 06 23.0 -50 17 13   0.06003 1.0668   146.0    32.2    20.7
    ...
    2022 07 22    22 39 56.2 -54 50 33   0.1065  1.0937   134.8    41.3    22.3
    ...
    2022 08 06    23 23 31.4 -54 12 03   0.2019  1.1634   133.8    39.0    23.7
    
    M. P. C. Staff               (C) Copyright 2022 MPC           M.P.E.C. 2022-N40
    


    Read MPEC 2022-N39 Read MPEC 2022-N41


    MPEC number:

    Enter an MPEC number in one of the following forms:

    • 1997-B01 (the full form)
    • J97B01 (the packed version of the full form)
    • B01 (the abbreviated form)